Location: Helion Bumpstead
(52.0500°N, 0.4000°E)
Time: 02:57:25
(UTC+00:00)

Cosmos 2034 Rocket - Visible Passes

Search period start: 19 February 2026 00:00
Search period end: 01 March 2026 00:00
Orbit: 956 x 1001 km, 82.9° (Epoch: 18 February)

Date Brightness Start Highest point End Pass type
(mag) Time Alt. Az. Time Alt. Az. Time Alt. Az.
19 Feb 6.9 06:03:41 10° ESE 06:06:31 14° ENE 06:09:22 10° NE visible
19 Feb 3.9 18:34:36 10° N 18:40:49 76° E 18:47:03 10° SSE visible
19 Feb 6.2 20:21:00 10° NNW 20:25:37 23° W 20:30:15 10° SW visible
20 Feb 6.6 06:27:35 10° SE 06:32:15 23° E 06:36:55 10° NNE visible
20 Feb 4.4 19:00:56 10° NNW 19:07:05 67° W 19:13:14 10° S visible
20 Feb 6.9 20:48:37 10° NW 20:51:20 13° WNW 20:54:04 10° W visible
21 Feb 5.3 19:27:26 10° NNW 19:33:10 40° W 19:38:55 10° SSW visible
22 Feb 7.1 05:37:45 10° E 05:40:01 12° ENE 05:42:17 10° NE visible
22 Feb 4.0 18:07:59 10° N 18:14:11 70° ENE 18:20:24 10° SSE visible
22 Feb 6.2 19:54:14 10° NNW 19:59:05 25° W 20:03:58 10° SW visible
23 Feb 6.7 06:01:18 10° SE 06:05:42 21° E 06:10:08 10° NNE visible
23 Feb 4.3 18:34:16 10° NNW 18:40:28 74° W 18:46:41 10° S visible
23 Feb 6.9 20:21:37 10° NW 20:24:50 15° WNW 20:28:03 10° WSW visible
24 Feb 5.2 19:00:45 10° NNW 19:06:35 44° W 19:12:27 10° SSW visible
25 Feb 7.3 05:12:03 10° E 05:13:31 11° ENE 05:14:59 10° ENE visible
25 Feb 6.2 19:27:29 10° NNW 19:32:33 27° W 19:37:38 10° SW visible
26 Feb 6.8 05:35:02 10° ESE 05:39:10 19° ENE 05:43:20 10° NE visible
26 Feb 4.2 18:07:37 10° NNW 18:13:52 80° W 18:20:08 10° S visible
26 Feb 6.9 19:54:41 10° NW 19:58:19 16° WNW 20:01:59 10° WSW visible
27 Feb 6.1 05:59:42 10° SE 06:05:01 32° E 06:10:21 10° NNE visible
27 Feb 5.1 18:34:04 10° NNW 18:40:02 49° W 18:46:00 10° SSW visible
28 Feb 6.1 19:00:44 10° NNW 19:06:00 30° W 19:11:17 10° SW visible
